Year,Month,Day,Hour,Minute,Value (Times are PST for windgust in km/hr)
2013,03,19,00,01,3.20
2013,03,19,00,02,1.60
2013,03,19,00,05,1.60
2013,03,19,00,06,4.80
2013,03,19,00,07,4.80
2013,03,19,00,08,3.20
2013,03,19,00,09,3.20
2013,03,19,00,10,1.60
2013,03,19,00,11,1.60
2013,03,19,00,12,3.20
2013,03,19,00,13,1.60
2013,03,19,00,19,1.60
2013,03,19,00,20,1.60
2013,03,19,00,21,1.60
2013,03,19,00,30,1.60
2013,03,19,00,53,1.60
2013,03,19,00,54,1.60
2013,03,19,00,55,1.60
2013,03,19,00,59,1.60
2013,03,19,01,00,1.60
2013,03,19,01,45,1.60
2013,03,19,02,33,1.60
2013,03,19,02,35,1.60
2013,03,19,02,38,1.60
2013,03,19,02,39,1.60
2013,03,19,03,19,1.60
2013,03,19,03,20,1.60
2013,03,19,03,21,1.60
2013,03,19,03,23,1.60
2013,03,19,03,24,1.60
2013,03,19,03,28,1.60
2013,03,19,03,29,1.60
2013,03,19,04,20,1.60
2013,03,19,04,21,1.60
2013,03,19,04,24,1.60
2013,03,19,04,29,3.20
2013,03,19,04,30,3.20
2013,03,19,04,31,1.60
2013,03,19,04,32,1.60
2013,03,19,04,33,1.60
2013,03,19,04,34,1.60
2013,03,19,04,35,1.60
2013,03,19,04,37,1.60
2013,03,19,04,49,1.60
2013,03,19,04,51,1.60
2013,03,19,04,52,3.20
2013,03,19,05,02,1.60
2013,03,19,05,05,1.60
2013,03,19,05,12,1.60
2013,03,19,05,13,1.60
2013,03,19,05,14,3.20
2013,03,19,05,15,1.60
2013,03,19,05,16,3.20
2013,03,19,05,17,4.80
2013,03,19,05,18,4.80
2013,03,19,05,19,3.20
2013,03,19,05,20,1.60
2013,03,19,05,21,1.60
2013,03,19,05,22,1.60
2013,03,19,05,23,3.20
2013,03,19,05,24,1.60
2013,03,19,05,26,3.20
2013,03,19,05,27,3.20
2013,03,19,05,28,1.60
2013,03,19,05,29,1.60
2013,03,19,05,30,3.20
2013,03,19,05,31,3.20
2013,03,19,05,35,1.60
2013,03,19,05,39,1.60
2013,03,19,05,41,1.60
2013,03,19,05,45,1.60
2013,03,19,05,55,3.20
2013,03,19,05,56,1.60
2013,03,19,05,57,3.20
2013,03,19,05,58,6.40
2013,03,19,05,59,1.60
2013,03,19,06,00,1.60
2013,03,19,06,01,1.60
2013,03,19,06,02,3.20
2013,03,19,06,03,1.60
2013,03,19,06,04,1.60
2013,03,19,06,05,1.60
2013,03,19,06,06,3.20
2013,03,19,06,07,3.20
2013,03,19,06,08,3.20
2013,03,19,06,09,1.60
2013,03,19,06,10,3.20
2013,03,19,06,11,1.60
2013,03,19,06,13,1.60
2013,03,19,06,14,1.60
2013,03,19,06,15,3.20
2013,03,19,06,16,1.60
2013,03,19,06,32,1.60
2013,03,19,06,33,1.60
2013,03,19,06,39,1.60
2013,03,19,06,40,1.60
2013,03,19,06,45,1.60
2013,03,19,06,47,3.20
2013,03,19,06,48,1.60
2013,03,19,06,50,1.60
2013,03,19,06,51,1.60
2013,03,19,06,52,1.60
2013,03,19,06,53,1.60
2013,03,19,06,54,3.20
2013,03,19,06,55,3.20
2013,03,19,06,56,4.80
2013,03,19,06,57,6.40
2013,03,19,06,58,4.80
2013,03,19,06,59,4.80
2013,03,19,07,00,6.40
2013,03,19,07,01,4.80
2013,03,19,07,02,1.60
2013,03,19,07,03,1.60
2013,03,19,07,04,3.20
2013,03,19,07,05,4.80
2013,03,19,07,06,4.80
2013,03,19,07,07,4.80
2013,03,19,07,08,3.20
2013,03,19,07,10,4.80
2013,03,19,07,11,3.20
2013,03,19,07,12,4.80
2013,03,19,07,13,3.20
2013,03,19,07,14,6.40
2013,03,19,07,15,8.10
2013,03,19,07,16,1.60
2013,03,19,07,17,9.60
2013,03,19,07,18,9.60
2013,03,19,07,19,8.10
2013,03,19,07,20,3.20
2013,03,19,07,21,6.40
2013,03,19,07,22,4.80
2013,03,19,07,23,1.60
2013,03,19,07,24,8.10
2013,03,19,07,25,9.60
2013,03,19,07,26,4.80
2013,03,19,07,27,6.40
2013,03,19,07,28,9.60
2013,03,19,07,29,4.80
2013,03,19,07,30,6.40
2013,03,19,07,31,4.80
2013,03,19,07,32,6.40
2013,03,19,07,33,6.40
2013,03,19,07,34,6.40
2013,03,19,07,35,4.80
2013,03,19,07,36,6.40
2013,03,19,07,37,6.40
2013,03,19,07,38,6.40
2013,03,19,07,39,3.20
2013,03,19,07,40,4.80
2013,03,19,07,41,4.80
2013,03,19,07,42,6.40
2013,03,19,07,43,1.60
2013,03,19,07,44,1.60
2013,03,19,07,45,8.10
2013,03,19,07,46,6.40
2013,03,19,07,47,3.20
2013,03,19,07,48,1.60
2013,03,19,07,49,3.20
2013,03,19,07,50,3.20
2013,03,19,07,51,8.10
2013,03,19,07,52,6.40
2013,03,19,07,53,14.50
2013,03,19,07,54,6.40
2013,03,19,07,55,9.60
2013,03,19,07,56,8.10
2013,03,19,07,57,11.30
2013,03,19,07,58,8.10
2013,03,19,07,59,9.60
2013,03,19,08,00,4.80
2013,03,19,08,01,8.10
2013,03,19,08,02,4.80
2013,03,19,08,03,1.60
2013,03,19,08,05,4.80
2013,03,19,08,06,3.20
2013,03,19,08,07,3.20
2013,03,19,08,08,3.20
2013,03,19,08,09,6.40
2013,03,19,08,10,3.20
2013,03,19,08,11,3.20
2013,03,19,08,12,3.20
2013,03,19,08,13,6.40
2013,03,19,08,14,3.20
2013,03,19,08,15,1.60
2013,03,19,08,17,1.60
2013,03,19,08,18,1.60
2013,03,19,08,19,6.40
2013,03,19,08,20,8.10
2013,03,19,08,21,4.80
2013,03,19,08,22,4.80
2013,03,19,08,23,4.80
2013,03,19,08,24,4.80
2013,03,19,08,25,3.20
2013,03,19,08,26,1.60
2013,03,19,08,27,4.80
2013,03,19,08,28,4.80
2013,03,19,08,29,4.80
2013,03,19,08,31,1.60
2013,03,19,08,32,3.20
2013,03,19,08,33,3.20
2013,03,19,08,34,1.60
2013,03,19,08,35,1.60
2013,03,19,08,36,8.10
2013,03,19,08,37,4.80
2013,03,19,08,38,6.40
2013,03,19,08,39,3.20
2013,03,19,08,40,4.80
2013,03,19,08,41,4.80
2013,03,19,08,42,3.20
2013,03,19,08,43,6.40
2013,03,19,08,44,9.60
2013,03,19,08,45,6.40
2013,03,19,08,46,1.60
2013,03,19,08,47,6.40
2013,03,19,08,48,4.80
2013,03,19,08,49,6.40
2013,03,19,08,50,4.80
2013,03,19,08,51,1.60
2013,03,19,08,52,4.80
2013,03,19,08,53,4.80
2013,03,19,08,54,4.80
2013,03,19,08,55,3.20
2013,03,19,08,56,8.10
2013,03,19,08,57,4.80
2013,03,19,08,58,6.40
2013,03,19,08,59,9.60
2013,03,19,09,00,6.40
2013,03,19,09,01,9.60
2013,03,19,09,02,6.40
2013,03,19,09,03,6.40
2013,03,19,09,04,9.60
2013,03,19,09,05,9.60
2013,03,19,09,06,6.40
2013,03,19,09,07,6.40
2013,03,19,09,08,8.10
2013,03,19,09,09,3.20
2013,03,19,09,10,6.40
2013,03,19,09,11,1.60
2013,03,19,09,12,4.80
2013,03,19,09,14,4.80
2013,03,19,09,15,3.20
2013,03,19,09,16,1.60
2013,03,19,09,17,9.60
2013,03,19,09,18,8.10
2013,03,19,09,19,11.30
2013,03,19,09,20,8.10
2013,03,19,09,21,14.50
2013,03,19,09,22,8.10
2013,03,19,09,23,9.60
2013,03,19,09,24,9.60
2013,03,19,09,25,11.30
2013,03,19,09,26,8.10
2013,03,19,09,27,11.30
2013,03,19,09,28,6.40
2013,03,19,09,29,9.60
2013,03,19,09,30,4.80
2013,03,19,09,31,3.20
2013,03,19,09,32,9.60
2013,03,19,09,33,8.10
2013,03,19,09,34,4.80
2013,03,19,09,35,6.40
2013,03,19,09,36,6.40
2013,03,19,09,37,11.30
2013,03,19,09,38,4.80
2013,03,19,09,39,9.60
2013,03,19,09,40,14.50
2013,03,19,09,41,16.10
2013,03,19,09,42,8.10
2013,03,19,09,43,16.10
2013,03,19,09,44,11.30
2013,03,19,09,45,16.10
2013,03,19,09,46,8.10
2013,03,19,09,47,9.60
2013,03,19,09,48,4.80
2013,03,19,09,49,9.60
2013,03,19,09,50,17.70
2013,03,19,09,51,4.80
2013,03,19,09,52,9.60
2013,03,19,09,53,14.50
2013,03,19,09,54,16.10
2013,03,19,09,55,11.30
2013,03,19,09,56,19.30
2013,03,19,09,57,16.10
2013,03,19,09,58,8.10
2013,03,19,09,59,14.50
2013,03,19,10,00,8.10
2013,03,19,10,01,11.30
2013,03,19,10,02,8.10
2013,03,19,10,03,4.80
2013,03,19,10,04,6.40
2013,03,19,10,05,4.80
2013,03,19,10,06,3.20
2013,03,19,10,07,4.80
2013,03,19,10,08,4.80
2013,03,19,10,09,6.40
2013,03,19,10,10,6.40
2013,03,19,10,11,8.10
2013,03,19,10,12,11.30
2013,03,19,10,13,4.80
2013,03,19,10,14,8.10
2013,03,19,10,15,8.10
2013,03,19,10,16,9.60
2013,03,19,10,17,16.10
2013,03,19,10,18,11.30
2013,03,19,10,19,11.30
2013,03,19,10,20,8.10
2013,03,19,10,21,8.10
2013,03,19,10,22,4.80
2013,03,19,10,23,8.10
2013,03,19,10,24,6.40
2013,03,19,10,25,6.40
2013,03,19,10,26,9.60
2013,03,19,10,27,9.60
2013,03,19,10,28,14.50
2013,03,19,10,29,16.10
2013,03,19,10,30,8.10
2013,03,19,10,31,6.40
2013,03,19,10,32,6.40
2013,03,19,10,33,8.10
2013,03,19,10,34,9.60
2013,03,19,10,35,9.60
2013,03,19,10,36,9.60
2013,03,19,10,37,11.30
2013,03,19,10,38,14.50
2013,03,19,10,39,16.10
2013,03,19,10,40,9.60
2013,03,19,10,41,3.20
2013,03,19,10,42,8.10
2013,03,19,10,43,6.40
2013,03,19,10,44,8.10
2013,03,19,10,45,11.30
2013,03,19,10,46,16.10
2013,03,19,10,47,16.10
2013,03,19,10,48,11.30
2013,03,19,10,49,9.60
2013,03,19,10,50,22.50
2013,03,19,10,51,12.90
2013,03,19,10,52,11.30
2013,03,19,10,53,9.60
2013,03,19,10,54,17.70
2013,03,19,10,55,19.30
2013,03,19,10,56,17.70
2013,03,19,10,57,14.50
2013,03,19,10,58,8.10
2013,03,19,10,59,6.40
2013,03,19,11,00,6.40
2013,03,19,11,01,6.40
2013,03,19,11,02,11.30
2013,03,19,11,03,16.10
2013,03,19,11,04,17.70
2013,03,19,11,05,9.60
2013,03,19,11,06,16.10
2013,03,19,11,07,6.40
2013,03,19,11,08,3.20
2013,03,19,11,09,8.10
2013,03,19,11,10,11.30
2013,03,19,11,11,19.30
2013,03,19,11,12,14.50
2013,03,19,11,13,6.40
2013,03,19,11,14,11.30
2013,03,19,11,15,6.40
2013,03,19,11,16,8.10
2013,03,19,11,17,11.30
2013,03,19,11,18,16.10
2013,03,19,11,19,8.10
2013,03,19,11,20,14.50
2013,03,19,11,21,8.10
2013,03,19,11,22,3.20
2013,03,19,11,23,14.50
2013,03,19,11,24,14.50
2013,03,19,11,25,11.30
2013,03,19,11,26,8.10
2013,03,19,11,27,3.20
2013,03,19,11,28,8.10
2013,03,19,11,29,14.50
2013,03,19,11,30,11.30
2013,03,19,11,31,9.60
2013,03,19,11,32,16.10
2013,03,19,11,33,6.40
2013,03,19,11,34,14.50
2013,03,19,11,35,12.90
2013,03,19,11,36,8.10
2013,03,19,11,37,16.10
2013,03,19,11,38,16.10
2013,03,19,11,39,11.30
2013,03,19,11,40,17.70
2013,03,19,11,41,14.50
2013,03,19,11,42,16.10
2013,03,19,11,43,17.70
2013,03,19,11,44,9.60
2013,03,19,11,45,9.60
2013,03,19,11,46,16.10
2013,03,19,11,47,14.50
2013,03,19,11,48,16.10
2013,03,19,11,49,11.30
2013,03,19,11,50,9.60
2013,03,19,11,51,9.60
2013,03,19,11,52,9.60
2013,03,19,11,53,9.60
2013,03,19,11,54,12.90
2013,03,19,11,55,11.30
2013,03,19,11,56,12.90
2013,03,19,11,57,8.10
2013,03,19,11,58,6.40
2013,03,19,11,59,14.50
2013,03,19,12,00,6.40
2013,03,19,12,01,6.40
2013,03,19,12,02,9.60
2013,03,19,12,03,9.60
2013,03,19,12,04,6.40
2013,03,19,12,05,6.40
2013,03,19,12,06,9.60
2013,03,19,12,07,6.40
2013,03,19,12,08,3.20
2013,03,19,12,09,1.60
2013,03,19,12,10,3.20
2013,03,19,12,11,1.60
2013,03,19,12,12,8.10
2013,03,19,12,13,8.10
2013,03,19,12,14,8.10
2013,03,19,12,15,8.10
2013,03,19,12,16,6.40
2013,03,19,12,17,8.10
2013,03,19,12,18,6.40
2013,03,19,12,19,8.10
2013,03,19,12,20,9.60
2013,03,19,12,21,6.40
2013,03,19,12,22,11.30
2013,03,19,12,23,16.10
2013,03,19,12,24,14.50
2013,03,19,12,25,9.60
2013,03,19,12,26,11.30
2013,03,19,12,27,9.60
2013,03,19,12,28,12.90
2013,03,19,12,29,17.70
2013,03,19,12,30,16.10
2013,03,19,12,31,19.30
2013,03,19,12,32,8.10
2013,03,19,12,33,11.30
2013,03,19,12,34,3.20
2013,03,19,12,35,4.80
2013,03,19,12,36,9.60
2013,03,19,12,37,9.60
2013,03,19,12,38,11.30
2013,03,19,12,39,11.30
2013,03,19,12,40,4.80
2013,03,19,12,41,11.30
2013,03,19,12,42,11.30
2013,03,19,12,43,6.40
2013,03,19,12,44,3.20
2013,03,19,12,45,6.40
2013,03,19,12,46,8.10
2013,03,19,12,47,1.60
2013,03,19,12,48,6.40
2013,03,19,12,49,8.10
2013,03,19,12,50,6.40
2013,03,19,12,51,17.70
2013,03,19,12,52,16.10
2013,03,19,12,53,17.70
2013,03,19,12,54,14.50
2013,03,19,12,55,14.50
2013,03,19,12,56,9.60
2013,03,19,12,57,6.40
2013,03,19,12,58,9.60
2013,03,19,12,59,6.40
2013,03,19,13,00,4.80
2013,03,19,13,01,11.30
2013,03,19,13,02,11.30
2013,03,19,13,03,9.60
2013,03,19,13,04,6.40
2013,03,19,13,05,6.40
2013,03,19,13,06,9.60
2013,03,19,13,07,4.80
2013,03,19,13,08,6.40
2013,03,19,13,09,8.10
2013,03,19,13,10,8.10
2013,03,19,13,11,8.10
2013,03,19,13,12,6.40
2013,03,19,13,13,4.80
2013,03,19,13,14,3.20
2013,03,19,13,15,1.60
2013,03,19,13,16,1.60
2013,03,19,13,17,4.80
2013,03,19,13,18,8.10
2013,03,19,13,19,3.20
2013,03,19,13,20,4.80
2013,03,19,13,21,4.80
2013,03,19,13,22,4.80
2013,03,19,13,23,4.80
2013,03,19,13,24,8.10
2013,03,19,13,25,6.40
2013,03,19,13,26,9.60
2013,03,19,13,27,16.10
2013,03,19,13,28,9.60
2013,03,19,13,29,4.80
2013,03,19,13,30,6.40
2013,03,19,13,31,6.40
2013,03,19,13,32,8.10
2013,03,19,13,33,8.10
2013,03,19,13,34,6.40
2013,03,19,13,35,8.10
2013,03,19,13,36,8.10
2013,03,19,13,37,6.40
2013,03,19,13,38,9.60
2013,03,19,13,39,8.10
2013,03,19,13,40,17.70
2013,03,19,13,41,19.30
2013,03,19,13,42,8.10
2013,03,19,13,43,9.60
2013,03,19,13,44,8.10
2013,03,19,13,45,11.30
2013,03,19,13,46,11.30
2013,03,19,13,47,9.60
2013,03,19,13,48,14.50
2013,03,19,13,49,8.10
2013,03,19,13,50,4.80
2013,03,19,13,51,3.20
2013,03,19,13,52,4.80
2013,03,19,13,53,6.40
2013,03,19,13,54,11.30
2013,03,19,13,55,8.10
2013,03,19,13,56,1.60
2013,03,19,13,57,1.60
2013,03,19,13,58,9.60
2013,03,19,13,59,11.30
2013,03,19,14,00,4.80
2013,03,19,14,01,4.80
2013,03,19,14,02,3.20
2013,03,19,14,03,11.30
2013,03,19,14,04,4.80
2013,03,19,14,05,9.60
2013,03,19,14,06,6.40
2013,03,19,14,07,16.10
2013,03,19,14,08,12.90
2013,03,19,14,09,14.50
2013,03,19,14,10,9.60
2013,03,19,14,11,14.50
2013,03,19,14,12,8.10
2013,03,19,14,13,3.20
2013,03,19,14,14,6.40
2013,03,19,14,15,3.20
2013,03,19,14,16,4.80
2013,03,19,14,17,6.40
2013,03,19,14,18,14.50
2013,03,19,14,19,14.50
2013,03,19,14,20,14.50
2013,03,19,14,21,6.40
2013,03,19,14,22,17.70
2013,03,19,14,23,6.40
2013,03,19,14,24,8.10
2013,03,19,14,25,11.30
2013,03,19,14,26,11.30
2013,03,19,14,27,8.10
2013,03,19,14,28,8.10
2013,03,19,14,29,8.10
2013,03,19,14,30,8.10
2013,03,19,14,31,8.10
2013,03,19,14,32,11.30
2013,03,19,14,33,17.70
2013,03,19,14,34,9.60
2013,03,19,14,35,8.10
2013,03,19,14,36,8.10
2013,03,19,14,37,4.80
2013,03,19,14,38,6.40
2013,03,19,14,39,9.60
2013,03,19,14,40,8.10
2013,03,19,14,41,11.30
2013,03,19,14,42,9.60
2013,03,19,14,43,11.30
2013,03,19,14,44,11.30
2013,03,19,14,45,14.50
2013,03,19,14,46,8.10
2013,03,19,14,47,4.80
2013,03,19,14,48,8.10
2013,03,19,14,49,8.10
2013,03,19,14,50,8.10
2013,03,19,14,51,8.10
2013,03,19,14,52,6.40
2013,03,19,14,53,6.40
2013,03,19,14,54,1.60
2013,03,19,14,55,3.20
2013,03,19,14,56,4.80
2013,03,19,14,57,8.10
2013,03,19,14,58,9.60
2013,03,19,14,59,8.10
2013,03,19,15,00,4.80
2013,03,19,15,01,3.20
2013,03,19,15,02,4.80
2013,03,19,15,03,3.20
2013,03,19,15,04,3.20
2013,03,19,15,05,1.60
2013,03,19,15,06,8.10
2013,03,19,15,07,8.10
2013,03,19,15,08,8.10
2013,03,19,15,09,8.10
2013,03,19,15,10,9.60
2013,03,19,15,11,3.20
2013,03,19,15,12,11.30
2013,03,19,15,13,8.10
2013,03,19,15,14,6.40
2013,03,19,15,15,3.20
2013,03,19,15,16,1.60
2013,03,19,15,17,3.20
2013,03,19,15,18,4.80
2013,03,19,15,19,1.60
2013,03,19,15,20,11.30
2013,03,19,15,21,8.10
2013,03,19,15,22,6.40
2013,03,19,15,23,8.10
2013,03,19,15,24,9.60
2013,03,19,15,25,8.10
2013,03,19,15,26,6.40
2013,03,19,15,27,4.80
2013,03,19,15,28,3.20
2013,03,19,15,29,6.40
2013,03,19,15,30,8.10
2013,03,19,15,31,11.30
2013,03,19,15,32,8.10
2013,03,19,15,33,9.60
2013,03,19,15,34,9.60
2013,03,19,15,35,8.10
2013,03,19,15,36,4.80
2013,03,19,15,37,6.40
2013,03,19,15,38,4.80
2013,03,19,15,39,3.20
2013,03,19,15,40,3.20
2013,03,19,15,41,6.40
2013,03,19,15,42,8.10
2013,03,19,15,43,8.10
2013,03,19,15,44,6.40
2013,03,19,15,45,4.80
2013,03,19,15,46,4.80
2013,03,19,15,47,3.20
2013,03,19,15,48,3.20
2013,03,19,15,49,4.80
2013,03,19,15,50,6.40
2013,03,19,15,51,9.60
2013,03,19,15,52,8.10
2013,03,19,15,53,8.10
2013,03,19,15,54,6.40
2013,03,19,15,55,8.10
2013,03,19,15,56,4.80
2013,03,19,15,57,11.30
2013,03,19,15,58,6.40
2013,03,19,15,59,6.40
2013,03,19,16,00,6.40
2013,03,19,16,01,11.30
2013,03,19,16,02,4.80
2013,03,19,16,03,8.10
2013,03,19,16,04,6.40
2013,03,19,16,06,4.80
2013,03,19,16,07,3.20
2013,03,19,16,08,3.20
2013,03,19,16,09,3.20
2013,03,19,16,10,6.40
2013,03,19,16,11,8.10
2013,03,19,16,12,6.40
2013,03,19,16,13,8.10
2013,03,19,16,14,3.20
2013,03,19,16,15,3.20
2013,03,19,16,16,4.80
2013,03,19,16,17,4.80
2013,03,19,16,18,3.20
2013,03,19,16,19,3.20
2013,03,19,16,20,8.10
2013,03,19,16,21,6.40
2013,03,19,16,22,8.10
2013,03,19,16,23,8.10
2013,03,19,16,24,3.20
2013,03,19,16,25,1.60
2013,03,19,16,26,8.10
2013,03,19,16,27,11.30
2013,03,19,16,28,4.80
2013,03,19,16,29,8.10
2013,03,19,16,30,4.80
2013,03,19,16,31,9.60
2013,03,19,16,32,11.30
2013,03,19,16,33,6.40
2013,03,19,16,34,6.40
2013,03,19,16,35,4.80
2013,03,19,16,36,4.80
2013,03,19,16,37,1.60
2013,03,19,16,38,1.60
2013,03,19,16,39,9.60
2013,03,19,16,40,8.10
2013,03,19,16,41,6.40
2013,03,19,16,42,6.40
2013,03,19,16,43,8.10
2013,03,19,16,44,6.40
2013,03,19,16,45,3.20
2013,03,19,16,46,9.60
2013,03,19,16,47,4.80
2013,03,19,16,48,1.60
2013,03,19,16,49,4.80
2013,03,19,16,50,3.20
2013,03,19,16,51,1.60
2013,03,19,16,52,3.20
2013,03,19,16,53,6.40
2013,03,19,16,54,8.10
2013,03,19,16,55,8.10
2013,03,19,16,56,4.80
2013,03,19,16,57,4.80
2013,03,19,16,58,4.80
2013,03,19,16,59,6.40
2013,03,19,17,00,1.60
2013,03,19,17,02,1.60
2013,03,19,17,03,3.20
2013,03,19,17,04,4.80
2013,03,19,17,05,4.80
2013,03,19,17,06,8.10
2013,03,19,17,07,9.60
2013,03,19,17,08,1.60
2013,03,19,17,09,3.20
2013,03,19,17,10,6.40
2013,03,19,17,11,8.10
2013,03,19,17,12,4.80
2013,03,19,17,13,6.40
2013,03,19,17,14,4.80
2013,03,19,17,15,4.80
2013,03,19,17,17,1.60
2013,03,19,17,18,8.10
2013,03,19,17,19,6.40
2013,03,19,17,20,14.50
2013,03,19,17,21,14.50
2013,03,19,17,22,6.40
2013,03,19,17,23,4.80
2013,03,19,17,24,8.10
2013,03,19,17,25,8.10
2013,03,19,17,26,6.40
2013,03,19,17,27,8.10
2013,03,19,17,28,4.80
2013,03,19,17,29,3.20
2013,03,19,17,30,8.10
2013,03,19,17,31,8.10
2013,03,19,17,32,3.20
2013,03,19,17,33,6.40
2013,03,19,17,34,11.30
2013,03,19,17,35,4.80
2013,03,19,17,36,8.10
2013,03,19,17,37,8.10
2013,03,19,17,38,3.20
2013,03,19,17,39,11.30
2013,03,19,17,40,8.10
2013,03,19,17,41,4.80
2013,03,19,17,43,8.10
2013,03,19,17,44,11.30
2013,03,19,17,45,11.30
2013,03,19,17,46,6.40
2013,03,19,17,47,8.10
2013,03,19,17,48,8.10
2013,03,19,17,49,8.10
2013,03,19,17,50,6.40
2013,03,19,17,51,4.80
2013,03,19,17,52,8.10
2013,03,19,17,53,6.40
2013,03,19,17,54,1.60
2013,03,19,17,55,6.40
2013,03,19,17,56,4.80
2013,03,19,17,57,4.80
2013,03,19,17,58,1.60
2013,03,19,17,59,4.80
2013,03,19,18,00,1.60
2013,03,19,18,01,4.80
2013,03,19,18,02,11.30
2013,03,19,18,03,6.40
2013,03,19,18,04,4.80
2013,03,19,18,05,3.20
2013,03,19,18,06,6.40
2013,03,19,18,07,6.40
2013,03,19,18,08,3.20
2013,03,19,18,09,8.10
2013,03,19,18,10,4.80
2013,03,19,18,11,1.60
2013,03,19,18,12,3.20
2013,03,19,18,13,1.60
2013,03,19,18,14,1.60
2013,03,19,18,15,3.20
2013,03,19,18,16,3.20
2013,03,19,18,17,4.80
2013,03,19,18,18,8.10
2013,03,19,18,19,1.60
2013,03,19,18,21,3.20
2013,03,19,18,22,3.20
2013,03,19,18,23,3.20
2013,03,19,18,24,1.60
2013,03,19,18,25,3.20
2013,03,19,18,26,3.20
2013,03,19,18,27,4.80
2013,03,19,18,28,3.20
2013,03,19,18,29,3.20
2013,03,19,18,30,6.40
2013,03,19,18,31,9.60
2013,03,19,18,32,8.10
2013,03,19,18,33,8.10
2013,03,19,18,34,4.80
2013,03,19,18,35,4.80
2013,03,19,18,36,3.20
2013,03,19,18,37,1.60
2013,03,19,18,38,1.60
2013,03,19,18,39,3.20
2013,03,19,18,40,1.60
2013,03,19,18,41,1.60
2013,03,19,18,42,1.60
2013,03,19,18,43,1.60
2013,03,19,18,44,1.60
2013,03,19,18,45,4.80
2013,03,19,18,47,4.80
2013,03,19,18,48,4.80
2013,03,19,18,49,6.40
2013,03,19,18,50,1.60
2013,03,19,18,51,1.60
2013,03,19,18,52,4.80
2013,03,19,18,53,6.40
2013,03,19,18,54,9.60
2013,03,19,18,55,3.20
2013,03,19,18,56,6.40
2013,03,19,18,57,4.80
2013,03,19,18,58,3.20
2013,03,19,18,59,8.10
2013,03,19,19,00,4.80
2013,03,19,19,01,6.40
2013,03,19,19,02,11.30
2013,03,19,19,03,9.60
2013,03,19,19,04,9.60
2013,03,19,19,05,9.60
2013,03,19,19,06,8.10
2013,03,19,19,07,6.40
2013,03,19,19,08,6.40
2013,03,19,19,09,12.90
2013,03,19,19,10,11.30
2013,03,19,19,11,9.60
2013,03,19,19,12,4.80
2013,03,19,19,13,6.40
2013,03,19,19,14,6.40
2013,03,19,19,15,6.40
2013,03,19,19,16,8.10
2013,03,19,19,17,8.10
2013,03,19,19,18,9.60
2013,03,19,19,19,8.10
2013,03,19,19,20,8.10
2013,03,19,19,21,6.40
2013,03,19,19,22,9.60
2013,03,19,19,23,11.30
2013,03,19,19,24,17.70
2013,03,19,19,25,19.30
2013,03,19,19,26,19.30
2013,03,19,19,27,19.30
2013,03,19,19,28,16.10
2013,03,19,19,29,12.90
2013,03,19,19,30,19.30
2013,03,19,19,31,17.70
2013,03,19,19,32,17.70
2013,03,19,19,33,22.50
2013,03,19,19,34,27.40
2013,03,19,19,35,24.20
2013,03,19,19,36,19.30
2013,03,19,19,37,14.50
2013,03,19,19,38,11.30
2013,03,19,19,39,9.60
2013,03,19,19,40,17.70
2013,03,19,19,41,20.90
2013,03,19,19,42,17.70
2013,03,19,19,43,24.20
2013,03,19,19,44,19.30
2013,03,19,19,45,24.20
2013,03,19,19,46,25.70
2013,03,19,19,47,20.90
2013,03,19,19,48,19.30
2013,03,19,19,49,22.50
2013,03,19,19,50,16.10
2013,03,19,19,51,9.60
2013,03,19,19,52,20.90
2013,03,19,19,53,27.40
2013,03,19,19,54,22.50
2013,03,19,19,55,20.90
2013,03,19,19,56,25.70
2013,03,19,19,57,16.10
2013,03,19,19,58,24.20
2013,03,19,19,59,11.30
2013,03,19,20,00,27.40
2013,03,19,20,01,35.40
2013,03,19,20,02,25.70
2013,03,19,20,03,14.50
2013,03,19,20,04,24.20
2013,03,19,20,05,30.60
2013,03,19,20,06,25.70
2013,03,19,20,07,27.40
2013,03,19,20,08,22.50
2013,03,19,20,09,16.10
2013,03,19,20,10,16.10
2013,03,19,20,11,20.90
2013,03,19,20,12,17.70
2013,03,19,20,13,11.30
2013,03,19,20,14,17.70
2013,03,19,20,15,20.90
2013,03,19,20,16,19.30
2013,03,19,20,17,17.70
2013,03,19,20,18,17.70
2013,03,19,20,19,19.30
2013,03,19,20,20,16.10
2013,03,19,20,21,16.10
2013,03,19,20,22,22.50
2013,03,19,20,23,24.20
2013,03,19,20,24,16.10
2013,03,19,20,25,14.50
2013,03,19,20,26,22.50
2013,03,19,20,27,25.70
2013,03,19,20,28,20.90
2013,03,19,20,29,17.70
2013,03,19,20,30,20.90
2013,03,19,20,31,20.90
2013,03,19,20,32,14.50
2013,03,19,20,33,16.10
2013,03,19,20,34,9.60
2013,03,19,20,35,8.10
2013,03,19,20,36,14.50
2013,03,19,20,37,14.50
2013,03,19,20,38,8.10
2013,03,19,20,39,16.10
2013,03,19,20,40,22.50
2013,03,19,20,41,33.80
2013,03,19,20,42,19.30
2013,03,19,20,43,29.00
2013,03,19,20,44,24.20
2013,03,19,20,45,17.70
2013,03,19,20,46,24.20
2013,03,19,20,47,25.70
2013,03,19,20,48,27.40
2013,03,19,20,49,11.30
2013,03,19,20,50,20.90
2013,03,19,20,51,20.90
2013,03,19,20,52,17.70
2013,03,19,20,53,11.30
2013,03,19,20,54,12.90
2013,03,19,20,55,14.50
2013,03,19,20,56,27.40
2013,03,19,20,57,14.50
2013,03,19,20,58,6.40
2013,03,19,20,59,11.30
2013,03,19,21,00,22.50
2013,03,19,21,01,22.50
2013,03,19,21,02,32.20
2013,03,19,21,03,24.20
2013,03,19,21,04,16.10
2013,03,19,21,05,24.20
2013,03,19,21,06,27.40
2013,03,19,21,07,24.20
2013,03,19,21,08,29.00
2013,03,19,21,09,16.10
2013,03,19,21,10,19.30
2013,03,19,21,11,24.20
2013,03,19,21,12,16.10
2013,03,19,21,13,19.30
2013,03,19,21,14,27.40
2013,03,19,21,15,17.70
2013,03,19,21,16,27.40
2013,03,19,21,17,24.20
2013,03,19,21,18,24.20
2013,03,19,21,19,20.90
2013,03,19,21,20,17.70
2013,03,19,21,21,17.70
2013,03,19,21,22,17.70
2013,03,19,21,23,16.10
2013,03,19,21,24,25.70
2013,03,19,21,25,20.90
2013,03,19,21,26,17.70
2013,03,19,21,27,17.70
2013,03,19,21,28,35.40
2013,03,19,21,29,24.20
2013,03,19,21,30,19.30
2013,03,19,21,31,19.30
2013,03,19,21,32,22.50
2013,03,19,21,33,9.60
2013,03,19,21,34,8.10
2013,03,19,21,35,9.60
2013,03,19,21,36,11.30
2013,03,19,21,37,16.10
2013,03,19,21,38,11.30
2013,03,19,21,39,30.60
2013,03,19,21,40,16.10
2013,03,19,21,41,29.00
2013,03,19,21,42,29.00
2013,03,19,21,43,22.50
2013,03,19,21,44,11.30
2013,03,19,21,45,8.10
2013,03,19,21,46,14.50
2013,03,19,21,47,19.30
2013,03,19,21,48,14.50
2013,03,19,21,49,20.90
2013,03,19,21,50,40.20
2013,03,19,21,51,38.60
2013,03,19,21,52,11.30
2013,03,19,21,53,9.60
2013,03,19,21,54,6.40
2013,03,19,21,55,9.60
2013,03,19,21,56,9.60
2013,03,19,21,57,8.10
2013,03,19,21,58,6.40
2013,03,19,21,59,8.10
2013,03,19,22,00,11.30
2013,03,19,22,01,11.30
2013,03,19,22,02,9.60
2013,03,19,22,03,9.60
2013,03,19,22,04,8.10
2013,03,19,22,05,9.60
2013,03,19,22,06,17.70
2013,03,19,22,07,14.50
2013,03,19,22,08,17.70
2013,03,19,22,09,16.10
2013,03,19,22,10,6.40
2013,03,19,22,11,8.10
2013,03,19,22,12,11.30
2013,03,19,22,13,8.10
2013,03,19,22,14,11.30
2013,03,19,22,15,4.80
2013,03,19,22,16,6.40
2013,03,19,22,17,9.60
2013,03,19,22,18,6.40
2013,03,19,22,19,8.10
2013,03,19,22,20,4.80
2013,03,19,22,21,8.10
2013,03,19,22,22,19.30
2013,03,19,22,23,11.30
2013,03,19,22,24,11.30
2013,03,19,22,25,8.10
2013,03,19,22,26,9.60
2013,03,19,22,27,8.10
2013,03,19,22,28,17.70
2013,03,19,22,29,17.70
2013,03,19,22,30,17.70
2013,03,19,22,31,11.30
2013,03,19,22,32,16.10
2013,03,19,22,33,8.10
2013,03,19,22,34,9.60
2013,03,19,22,35,16.10
2013,03,19,22,36,14.50
2013,03,19,22,37,17.70
2013,03,19,22,38,14.50
2013,03,19,22,39,11.30
2013,03,19,22,40,11.30
2013,03,19,22,41,11.30
2013,03,19,22,42,22.50
2013,03,19,22,43,17.70
2013,03,19,22,44,8.10
2013,03,19,22,45,16.10
2013,03,19,22,46,9.60
2013,03,19,22,47,4.80
2013,03,19,22,48,4.80
2013,03,19,22,49,4.80
2013,03,19,22,50,9.60
2013,03,19,22,51,9.60
2013,03,19,22,52,14.50
2013,03,19,22,53,11.30
2013,03,19,22,54,9.60
2013,03,19,22,55,11.30
2013,03,19,22,56,8.10
2013,03,19,22,57,11.30
2013,03,19,22,58,8.10
2013,03,19,22,59,4.80
2013,03,19,23,00,17.70
2013,03,19,23,01,11.30
2013,03,19,23,02,17.70
2013,03,19,23,03,20.90
2013,03,19,23,04,17.70
2013,03,19,23,05,22.50
2013,03,19,23,06,20.90
2013,03,19,23,07,16.10
2013,03,19,23,08,19.30
2013,03,19,23,09,17.70
2013,03,19,23,10,16.10
2013,03,19,23,11,9.60
2013,03,19,23,12,4.80
2013,03,19,23,13,14.50
2013,03,19,23,14,20.90